TimeMDT,TemperatureF,Dew PointF,Humidity,Sea Level PressureIn,VisibilityMPH,Wind Direction,Wind SpeedMPH,Gust SpeedMPH,PrecipitationIn,Events,Conditions,WindDirDegrees,DateUTC
12:15 AM,73.4,62.6,69,29.99,10.0,NE,6.9,-,N/A,,Clear,50,2013-09-07 06:15:00
12:35 AM,71.6,62.6,73,29.99,10.0,NE,5.8,-,N/A,,Clear,50,2013-09-07 06:35:00
12:55 AM,71.6,62.6,73,29.99,10.0,NNE,6.9,-,N/A,,Clear,30,2013-09-07 06:55:00
1:15 AM,71.6,62.6,73,29.99,10.0,NNE,8.1,-,N/A,,Clear,20,2013-09-07 07:15:00
1:55 AM,69.8,60.8,73,29.99,10.0,NNE,8.1,-,N/A,,Clear,20,2013-09-07 07:55:00
2:15 AM,71.6,62.6,73,29.99,10.0,NNE,6.9,-,N/A,,Clear,20,2013-09-07 08:15:00
2:35 AM,71.6,62.6,73,29.99,10.0,NNE,4.6,-,N/A,,Clear,30,2013-09-07 08:35:00
2:55 AM,69.8,62.6,78,30.00,10.0,Calm,Calm,-,N/A,,Clear,0,2013-09-07 08:55:00
3:15 AM,69.8,62.6,78,30.01,10.0,NE,6.9,-,N/A,,Clear,50,2013-09-07 09:15:00
3:35 AM,69.8,62.6,78,30.00,10.0,NE,8.1,-,N/A,,Clear,40,2013-09-07 09:35:00
3:55 AM,68.0,62.6,83,30.00,10.0,NE,8.1,-,N/A,,Clear,40,2013-09-07 09:55:00
4:15 AM,69.8,62.6,78,30.00,10.0,NNE,8.1,-,N/A,,Clear,30,2013-09-07 10:15:00
4:35 AM,69.8,62.6,78,29.99,10.0,NNE,10.4,-,N/A,,Clear,20,2013-09-07 10:35:00
4:55 AM,69.8,62.6,78,29.99,10.0,NNE,11.5,-,N/A,,Clear,20,2013-09-07 10:55:00
5:15 AM,69.8,62.6,78,30.00,10.0,NNE,10.4,-,N/A,,Clear,30,2013-09-07 11:15:00
5:35 AM,69.8,62.6,78,30.01,10.0,NE,10.4,-,N/A,,Clear,50,2013-09-07 11:35:00
5:55 AM,69.8,62.6,78,30.01,10.0,NE,12.7,-,N/A,,Clear,40,2013-09-07 11:55:00
6:15 AM,68.0,62.6,83,30.01,10.0,NE,11.5,-,N/A,,Clear,40,2013-09-07 12:15:00
6:35 AM,68.0,62.6,83,30.02,10.0,NE,11.5,-,N/A,,Clear,40,2013-09-07 12:35:00
6:55 AM,68.0,64.4,88,30.03,10.0,NE,8.1,-,N/A,,Clear,40,2013-09-07 12:55:00
7:15 AM,68.0,64.4,88,30.03,10.0,NE,6.9,-,N/A,,Clear,40,2013-09-07 13:15:00
7:35 AM,69.8,64.4,83,30.04,10.0,NE,8.1,-,N/A,,Clear,50,2013-09-07 13:35:00
7:55 AM,69.8,64.4,83,30.04,10.0,ENE,9.2,-,N/A,,Partly Cloudy,60,2013-09-07 13:55:00
8:15 AM,69.8,64.4,83,30.03,10.0,NE,10.4,-,N/A,,Scattered Clouds,40,2013-09-07 14:15:00
8:35 AM,69.8,64.4,83,30.04,10.0,ENE,8.1,-,N/A,,Scattered Clouds,70,2013-09-07 14:35:00
8:55 AM,69.8,64.4,83,30.03,10.0,NE,12.7,-,N/A,,Mostly Cloudy,50,2013-09-07 14:55:00
9:15 AM,71.6,64.4,78,30.03,10.0,ENE,11.5,-,N/A,,Partly Cloudy,60,2013-09-07 15:15:00
9:35 AM,71.6,64.4,78,30.04,10.0,ENE,12.7,-,N/A,,Clear,60,2013-09-07 15:35:00
9:55 AM,71.6,66.2,83,30.06,10.0,East,11.5,18.4,N/A,,Scattered Clouds,90,2013-09-07 15:55:00
10:15 AM,71.6,66.2,83,30.05,9.0,East,12.7,-,N/A,,Scattered Clouds,80,2013-09-07 16:15:00
10:35 AM,73.4,66.2,78,30.06,9.0,East,11.5,-,N/A,,Partly Cloudy,100,2013-09-07 16:35:00
10:55 AM,73.4,66.2,78,30.05,10.0,East,12.7,-,N/A,,Clear,100,2013-09-07 16:55:00
11:15 AM,73.4,66.2,78,30.05,10.0,ESE,12.7,-,N/A,,Clear,110,2013-09-07 17:15:00
11:35 AM,75.2,66.2,73,30.05,10.0,East,8.1,-,N/A,,Clear,100,2013-09-07 17:35:00
11:55 AM,75.2,66.2,73,30.05,10.0,ESE,12.7,-,N/A,,Partly Cloudy,110,2013-09-07 17:55:00
12:35 PM,77.0,66.2,69,30.04,10.0,SSE,5.8,-,N/A,,Partly Cloudy,150,2013-09-07 18:35:00
12:55 PM,77.0,66.2,69,30.04,10.0,SSE,4.6,-,N/A,,Clear,160,2013-09-07 18:55:00
1:15 PM,78.8,66.2,65,30.04,10.0,Calm,Calm,-,N/A,,Clear,0,2013-09-07 19:15:00
1:35 PM,78.8,66.2,65,30.04,10.0,ENE,3.5,-,N/A,,Scattered Clouds,60,2013-09-07 19:35:00
1:55 PM,80.6,64.4,58,30.04,10.0,SW,5.8,-,N/A,,Scattered Clouds,230,2013-09-07 19:55:00
2:35 PM,80.6,62.6,54,30.04,10.0,ESE,5.8,-,N/A,,Partly Cloudy,110,2013-09-07 20:35:00
2:55 PM,78.8,64.4,61,30.03,10.0,NE,6.9,-,N/A,,Mostly Cloudy,50,2013-09-07 20:55:00
3:15 PM,78.8,64.4,61,30.04,10.0,East,8.1,-,N/A,,Mostly Cloudy,80,2013-09-07 21:15:00
3:55 PM,71.6,60.8,69,30.05,10.0,NNE,18.4,23.0,N/A,,Mostly Cloudy,30,2013-09-07 21:55:00
4:15 PM,71.6,60.8,69,30.05,10.0,NE,18.4,26.5,N/A,,Partly Cloudy,40,2013-09-07 22:15:00
4:35 PM,71.6,60.8,69,30.06,10.0,NE,20.7,-,N/A,,Scattered Clouds,50,2013-09-07 22:35:00
4:55 PM,71.6,60.8,69,30.05,10.0,NE,17.3,-,N/A,,Partly Cloudy,50,2013-09-07 22:55:00
5:35 PM,73.4,60.8,65,30.03,10.0,NE,18.4,21.9,N/A,,Partly Cloudy,50,2013-09-07 23:35:00
5:55 PM,71.6,62.6,73,30.04,10.0,ENE,21.9,-,N/A,,Clear,70,2013-09-07 23:55:00
6:15 PM,71.6,62.6,73,30.03,10.0,ENE,19.6,-,N/A,,Clear,60,2013-09-08 00:15:00
6:35 PM,69.8,62.6,78,30.04,10.0,East,19.6,25.3,N/A,,Clear,80,2013-09-08 00:35:00
6:55 PM,69.8,60.8,73,30.03,10.0,ENE,19.6,26.5,N/A,,Partly Cloudy,70,2013-09-08 00:55:00
7:15 PM,68.0,60.8,78,30.03,10.0,ENE,18.4,24.2,N/A,,Scattered Clouds,60,2013-09-08 01:15:00
7:35 PM,66.2,59.0,78,30.04,10.0,ENE,17.3,-,N/A,,Partly Cloudy,60,2013-09-08 01:35:00
7:55 PM,66.2,60.8,83,30.04,10.0,ENE,15.0,-,N/A,,Partly Cloudy,70,2013-09-08 01:55:00
8:15 PM,64.4,59.0,83,30.03,10.0,ENE,11.5,-,N/A,,Clear,60,2013-09-08 02:15:00
8:55 PM,64.4,59.0,83,30.04,10.0,ENE,13.8,-,N/A,,Overcast,60,2013-09-08 02:55:00
9:35 PM,62.6,59.0,88,30.03,10.0,NE,12.7,-,N/A,,Mostly Cloudy,50,2013-09-08 03:35:00
9:55 PM,62.6,59.0,88,30.02,10.0,NE,10.4,-,N/A,,Partly Cloudy,50,2013-09-08 03:55:00
10:16 PM,62.6,59.0,88,30.02,10.0,NE,9.2,-,N/A,,Clear,50,2013-09-08 04:16:00
10:35 PM,62.6,59.0,88,30.02,10.0,NE,9.2,-,N/A,,Clear,40,2013-09-08 04:35:00
10:55 PM,62.6,57.2,82,30.03,10.0,NE,9.2,-,N/A,,Partly Cloudy,50,2013-09-08 04:55:00
11:35 PM,62.6,57.2,82,30.02,10.0,NE,9.2,-,N/A,,Overcast,50,2013-09-08 05:35:00
11:55 PM,62.6,57.2,82,30.02,10.0,ENE,11.5,-,N/A,,Overcast,60,2013-09-08 05:55:00